GFSCGP_700_rhum_111.txt.gz
RH
38 37 35 38 34 32 34 42 70 89 85 90 86 86 100 99 93 84 68 84 86 80 70 75 82 73 55 70 57 39 42 45 54 59 67 69 62 52 55 56 54 51 71 52
33 28 29 31 32 30 37 46 74 80 78 83 86 84 100 100 96 78 80 85 81 78 79 79 80 71 64 75 68 41 43 45 51 70 70 70 58 62 63 56 55 66 64 54
31 21 25 28 29 29 60 70 61 64 77 78 86 92 93 100 89 75 83 86 84 73 76 78 61 66 67 70 68 47 45 44 53 59 60 71 72 66 70 61 50 49 48 58
24 16 21 21 22 24 64 61 61 59 72 75 90 94 83 98 99 71 82 85 84 74 75 68 65 68 62 80 56 37 37 38 56 61 59 65 68 56 53 58 54 49 44 47
22 20 22 21 18 18 52 62 60 65 63 77 97 98 83 79 99 88 84 85 89 77 78 70 73 70 63 78 52 31 33 36 40 46 58 65 53 58 63 71 62 46 49 47
25 23 24 22 17 19 30 64 68 74 65 82 84 85 67 71 78 82 91 91 88 84 84 78 70 76 67 75 58 34 38 46 43 36 47 65 69 75 81 76 72 66 59 49
25 24 22 20 20 44 50 61 66 71 79 81 75 84 64 69 64 76 82 96 91 86 86 75 70 71 77 73 63 46 30 47 54 54 53 57 72 75 77 78 80 75 74 58
27 22 21 16 30 36 60 55 44 68 88 84 91 80 60 71 95 85 92 92 98 90 85 74 65 69 76 76 74 65 46 24 51 60 54 56 58 66 71 79 74 74 75 64
28 25 25 26 31 34 56 58 47 54 76 74 76 54 64 66 84 94 85 90 99 99 87 77 75 65 67 69 77 86 84 38 24 33 34 40 55 72 72 77 81 81 79 71
34 32 23 23 24 32 44 42 49 50 80 93 76 69 51 56 62 57 58 64 69 95 91 88 82 70 67 65 80 83 80 77 56 35 28 28 27 41 65 69 73 80 83 82
37 33 24 24 28 27 48 44 41 40 47 85 91 50 32 36 39 42 50 59 68 75 79 89 83 74 72 75 75 79 86 83 80 63 46 37 28 26 28 34 58 69 75 70
36 37 34 27 28 28 31 32 31 31 35 48 54 40 31 35 42 46 51 59 75 80 86 81 83 81 72 67 74 77 82 78 87 74 63 53 48 37 31 30 34 40 55 48
34 35 34 27 28 37 34 34 29 23 21 19 45 22 25 36 43 47 50 60 61 73 81 84 83 87 82 74 77 78 79 84 91 86 76 78 83 77 93 64 48 44 44 45
38 38 34 42 44 48 46 39 33 27 21 18 18 16 16 22 42 48 50 58 57 60 74 80 89 92 82 85 90 88 88 89 92 94 90 76 86 79 99 99 87 74 76 68
41 41 36 33 40 45 50 42 36 34 29 24 17 16 24 23 44 50 56 57 60 65 64 72 83 72 78 88 94 91 90 92 96 90 78 87 95 93 96 94 99 98 96 90
43 39 44 47 40 45 50 46 42 41 42 28 20 22 24 31 48 55 62 64 68 63 72 76 62 66 72 82 88 94 90 90 93 86 86 87 97 96 91 91 88 86 97 100
51 54 48 49 48 52 47 57 53 67 59 39 31 45 42 45 65 66 62 61 74 81 72 72 76 65 67 74 89 91 92 90 93 93 98 99 94 88 82 85 87 83 91 91
42 46 53 53 50 62 51 54 64 71 84 73 50 61 55 58 62 55 68 76 76 80 72 74 74 79 80 86 81 75 88 88 90 88 97 78 87 91 84 78 73 72 77 76
46 45 50 48 51 68 60 51 58 58 68 80 63 57 60 62 63 64 72 65 66 70 71 68 75 69 83 88 86 80 81 79 79 88 80 81 95 88 81 88 81 73 74 70
52 57 54 54 55 76 60 60 57 57 67 63 71 69 70 65 64 76 72 67 54 47 74 66 63 60 61 71 79 83 92 98 96 81 83 86 86 71 86 91 86 80 74 71
54 57 56 55 58 54 61 56 57 59 64 59 62 65 65 62 70 74 73 63 62 59 56 66 63 65 62 67 76 85 88 91 98 98 98 93 80 86 81 82 83 77 74 83
57 55 59 58 53 49 55 58 58 55 57 58 51 48 52 59 66 65 64 64 56 48 57 52 54 64 70 71 70 75 89 90 95 98 98 96 84 78 69 71 75 82 91 90
59 56 54 54 61 56 52 53 64 69 68 59 55 53 54 53 52 65 62 61 63 54 48 56 52 48 57 64 67 71 72 86 99 99 86 74 69 71 61 82 100 89 98 92
57 55 52 58 59 61 58 64 70 70 67 64 66 57 36 45 62 61 58 59 62 60 54 50 49 54 51 50 50 50 51 53 59 66 67 63 65 64 87 94 100 92 84 88
55 54 57 52 62 61 62 64 65 62 60 58 62 62 50 68 62 73 68 49 48 43 59 64 56 55 53 52 49 48 51 53 53 55 52 52 56 70 85 83 85 98 100 95
45 46 44 30 52 58 57 61 58 52 47 54 59 57 63 68 76 86 86 60 45 29 47 52 48 49 53 56 56 57 59 57 64 76 82 83 86 91 88 78 67 58 52 60

GFSCGP_700_rhum_114.txt.gz
RH
23 45 44 41 38 34 35 36 60 76 70 66 72 86 94 89 89 92 85 73 61 58 72 76 85 78 58 56 28 37 48 57 56 68 51 46 46 50 52 57 52 67 52 48
38 38 40 37 35 33 32 35 67 72 68 76 83 76 89 92 98 93 88 83 69 65 76 78 85 79 66 63 48 30 44 50 63 59 57 59 55 53 50 57 60 67 67 58
36 32 32 33 32 32 32 54 64 62 72 74 80 84 72 96 94 95 95 91 78 69 75 75 77 79 70 67 64 40 43 47 53 64 61 61 54 54 56 59 52 67 63 58
34 32 26 25 25 26 33 60 61 62 67 73 80 89 85 73 77 92 98 93 84 75 83 76 75 73 68 87 58 43 44 46 50 60 54 67 71 65 54 49 51 53 52 60
26 21 23 23 20 20 23 60 62 68 70 78 92 84 85 85 73 72 99 89 73 78 81 70 70 70 69 82 63 38 46 47 49 63 58 59 52 48 45 52 50 47 46 48
23 22 24 21 21 17 17 52 61 72 83 92 78 85 82 76 65 79 90 85 79 76 83 74 72 78 70 83 66 34 33 41 49 76 57 57 53 57 66 66 61 52 49 50
25 25 24 23 21 24 26 42 78 82 92 85 79 93 61 64 68 66 75 77 80 75 74 76 81 80 76 71 68 42 34 41 42 47 54 64 73 73 81 78 72 70 71 59
28 25 22 21 23 22 34 47 52 65 87 81 90 74 51 51 63 70 81 81 79 81 76 81 81 79 75 74 71 52 33 44 51 52 55 57 73 81 82 77 80 84 74 82
27 26 26 29 35 44 59 58 48 57 80 81 68 56 49 63 67 72 75 86 88 84 71 80 81 84 76 75 71 59 58 29 45 63 66 68 71 69 71 78 82 80 80 73
33 30 26 27 25 47 52 52 56 60 81 79 68 63 46 54 63 89 95 78 74 80 81 81 79 79 79 77 69 72 74 67 32 33 50 56 63 65 80 79 80 84 85 86
36 36 28 25 25 33 47 56 50 47 54 79 76 44 35 44 48 58 61 60 69 84 73 80 77 79 79 73 69 72 62 68 49 40 32 30 33 32 47 77 76 75 81 85
35 35 37 31 32 29 33 44 44 47 39 52 56 43 39 39 48 52 54 57 61 62 68 81 76 79 79 76 71 75 81 57 70 89 74 47 34 27 26 31 40 65 75 74
32 35 35 35 35 36 44 42 40 34 32 35 43 24 18 38 41 47 52 55 60 63 86 85 78 86 82 78 81 85 88 81 81 97 92 74 53 42 38 31 31 33 40 51
42 38 37 39 47 42 46 42 38 30 26 23 20 20 18 23 45 46 48 52 55 60 76 89 88 92 89 87 89 94 92 83 88 89 92 91 81 75 78 82 82 51 44 42
42 43 40 40 52 54 62 48 44 41 37 27 22 20 19 29 43 53 53 55 58 66 77 87 94 99 95 96 95 92 98 90 90 95 93 93 95 87 89 84 74 87 61 72
46 43 44 41 43 54 56 51 54 51 50 50 28 22 24 38 54 56 54 59 63 67 74 75 94 99 98 84 85 84 96 100 100 95 90 95 95 91 78 85 78 100 94 99
45 52 49 47 52 51 52 55 53 61 55 56 37 34 39 47 64 64 64 65 69 71 76 74 78 83 85 82 92 96 96 96 98 94 100 100 100 88 84 84 92 95 93 96
44 46 49 54 51 68 56 57 50 54 54 54 49 44 48 75 75 68 64 64 67 79 88 84 83 80 82 77 77 72 82 90 98 97 100 99 99 97 89 82 80 85 88 88
46 45 50 52 53 58 55 58 50 55 57 52 54 52 68 78 59 57 60 74 72 69 77 82 88 89 86 86 81 91 93 85 83 100 94 98 88 83 80 85 94 90 85 84
46 50 56 52 57 70 53 54 50 60 62 53 63 56 65 55 59 70 72 64 50 54 64 68 77 77 74 77 91 91 79 79 89 91 99 98 77 80 90 92 96 99 85 78
60 59 59 56 55 49 60 68 57 67 58 61 64 66 73 68 62 66 72 61 46 43 53 68 64 63 64 64 69 76 84 77 85 92 88 92 74 88 95 95 97 97 91 84
56 52 58 60 58 50 59 62 62 60 59 54 56 64 65 67 66 64 58 62 53 48 48 57 71 72 69 68 71 75 84 90 96 95 88 88 82 99 99 93 78 75 83 76
57 58 64 59 56 54 56 60 59 66 66 56 51 47 53 52 56 53 45 45 58 55 50 49 54 59 71 71 71 68 70 90 93 99 88 87 98 84 79 76 77 73 78 82
50 49 59 59 56 57 58 56 74 72 65 63 61 48 53 54 46 58 55 49 66 62 62 50 50 45 54 55 58 61 65 69 78 99 98 99 97 93 94 91 90 100 100 99
50 46 45 48 52 58 60 60 68 68 68 64 54 57 63 74 68 64 54 43 43 53 58 55 61 54 55 51 51 54 55 60 65 67 72 79 82 92 97 98 100 100 100 100
46 45 46 44 42 59 56 52 52 52 53 69 70 65 69 76 82 61 55 44 34 37 46 60 71 72 66 59 56 61 67 63 68 74 76 81 82 88 96 98 96 94 91 98

GFSCGP_700_rhum_117.txt.gz
RH
16 33 48 51 46 41 41 38 45 70 69 78 92 83 83 87 78 81 93 71 61 55 65 69 78 67 72 45 44 47 51 54 62 63 59 56 60 51 53 49 57 49 69 66
18 40 47 46 37 38 36 34 39 67 71 72 76 74 84 85 86 82 90 84 66 65 64 67 78 74 65 62 36 43 52 56 63 69 62 50 49 47 48 51 51 55 46 48
30 31 41 40 36 35 34 35 44 65 66 77 76 75 87 81 92 89 91 92 75 71 64 62 77 72 67 63 51 35 52 59 66 73 62 56 51 57 54 57 61 69 66 61
36 32 31 32 33 32 40 32 64 68 69 86 78 76 72 66 66 74 88 82 76 71 74 74 74 79 68 70 58 38 46 51 78 68 84 70 63 68 65 66 54 58 59 60
31 31 29 23 25 25 28 36 66 67 72 79 78 96 66 71 95 82 79 80 74 70 71 75 71 71 73 77 59 48 41 49 59 71 80 76 75 71 60 50 52 52 47 55
31 23 23 22 21 23 22 28 61 61 72 81 78 87 75 64 54 48 64 70 69 66 71 73 71 81 80 67 65 37 45 46 52 64 67 71 67 62 54 59 62 54 52 52
26 24 24 23 24 26 21 32 54 60 72 57 73 99 54 53 56 56 59 60 56 61 65 74 82 79 80 64 62 43 31 42 47 65 61 62 70 65 75 80 73 62 58 57
30 24 23 25 23 22 22 44 30 39 48 60 88 87 52 45 54 65 75 66 56 58 60 72 74 76 81 72 63 49 29 38 39 58 70 66 73 79 81 85 84 82 85 71
28 27 30 30 39 39 46 55 45 62 68 59 71 55 43 45 50 58 65 72 52 59 60 74 72 76 84 78 67 58 29 41 48 45 48 53 62 79 80 80 80 85 85 80
33 36 28 39 37 40 64 56 62 55 50 47 53 68 50 40 45 54 57 57 63 62 58 71 72 76 82 80 74 69 47 33 40 62 56 60 70 76 73 70 78 85 78 79
36 36 35 31 29 43 46 58 54 55 55 41 44 37 39 37 41 54 68 74 68 71 59 71 80 72 85 83 78 69 52 48 32 40 60 63 62 61 63 79 75 79 79 80
29 34 34 35 34 32 37 54 51 45 49 58 58 38 32 26 40 53 54 63 66 68 74 74 82 82 84 86 79 76 66 64 56 42 38 36 36 35 37 37 73 76 74 73
30 37 33 32 37 40 49 51 52 52 48 44 38 30 26 20 44 52 59 60 60 70 79 90 92 91 80 84 80 81 75 84 74 67 86 85 65 42 34 29 27 30 39 61
30 36 37 31 40 50 58 50 57 52 37 33 33 29 22 21 34 49 60 71 75 74 74 75 77 87 99 94 78 79 79 84 89 90 94 87 90 80 65 60 59 42 32 29
42 44 41 39 41 50 49 52 52 63 36 31 28 25 24 23 33 52 55 61 69 73 85 88 84 94 98 84 86 83 87 96 100 98 95 87 86 90 90 82 80 86 82 79
46 48 44 44 49 42 56 49 51 60 60 52 39 28 28 28 32 54 56 62 58 62 66 79 87 94 91 84 82 83 86 93 100 99 90 89 98 96 98 100 95 85 88 73
47 52 50 49 52 54 64 56 52 52 44 48 54 47 38 35 44 59 61 64 61 60 55 64 86 94 98 99 95 92 88 96 99 100 99 94 98 91 96 96 97 85 88 82
41 41 44 52 54 60 60 52 55 54 45 46 48 49 51 38 61 63 64 65 64 70 70 70 66 81 97 98 97 97 93 92 87 99 99 99 93 99 99 99 98 93 93 90
43 43 48 54 58 53 59 50 48 51 44 44 48 52 40 49 52 65 64 62 63 67 74 76 79 66 79 86 88 92 88 92 92 90 93 95 99 96 100 99 100 90 76 83
44 46 56 52 55 50 49 48 51 56 52 42 46 62 50 62 64 56 52 53 62 65 64 74 84 76 81 87 89 86 85 86 89 87 93 96 99 99 98 81 84 82 95 90
54 55 60 57 63 52 46 60 60 63 53 46 56 66 77 78 72 68 62 56 50 42 49 64 72 75 79 83 92 94 86 88 91 89 94 95 98 99 97 94 93 98 97 98
58 57 58 60 64 56 51 66 66 57 52 61 62 73 76 81 81 79 66 56 49 45 55 66 75 76 75 72 71 74 76 80 90 88 92 99 80 95 98 97 94 100 88 99
60 58 62 59 56 54 54 62 60 60 66 61 61 68 79 93 86 71 56 59 61 55 48 52 54 65 74 72 67 71 76 85 93 98 97 92 88 80 90 93 88 88 92 87
54 55 57 56 52 58 57 59 58 69 62 60 58 65 88 86 75 74 72 61 52 60 65 54 48 46 55 59 69 76 86 97 100 100 93 86 94 83 83 74 86 94 96 96
52 47 42 46 52 60 64 70 72 68 66 66 46 51 65 73 73 62 54 44 51 61 65 60 53 49 48 52 51 50 53 60 72 91 93 98 99 98 100 99 98 98 98 99
48 47 45 49 43 60 54 60 53 55 63 71 67 62 70 78 74 67 61 36 37 37 43 50 56 58 59 57 56 52 52 55 55 54 57 62 76 98 100 100 100 99 100 100

GFSCGP_700_rhum_123.txt.gz
RH
13 16 22 22 28 25 30 35 34 56 52 86 77 80 93 73 67 84 91 75 63 72 75 93 93 91 92 40 47 48 50 50 61 56 57 97 81 90 79 86 62 62 56 50
16 14 15 20 27 29 28 30 32 60 62 67 65 72 75 84 71 69 97 89 73 70 75 89 87 89 94 58 39 42 45 50 61 60 70 98 95 80 99 52 44 55 56 65
15 14 18 26 27 24 25 27 28 37 75 70 68 58 67 81 68 67 76 83 73 68 82 79 82 86 91 89 45 38 38 47 63 65 70 70 64 94 55 52 50 44 59 57
15 18 26 25 22 21 21 24 28 33 53 45 71 39 59 68 78 57 66 70 85 78 68 75 80 86 86 89 65 38 40 42 50 60 67 45 57 84 71 95 57 57 52 51
17 21 21 20 20 20 20 23 27 30 38 39 41 52 34 47 77 91 89 86 98 71 75 74 74 83 89 87 92 55 40 39 43 50 53 52 62 99 88 62 70 68 65 58
20 22 19 18 18 19 19 24 29 36 36 36 30 35 31 42 63 75 90 95 81 83 74 74 81 87 86 90 93 91 32 44 49 52 57 59 60 99 62 84 82 62 58 58
18 19 19 18 20 24 20 24 25 28 26 25 31 33 27 37 58 58 74 89 78 83 83 78 78 85 80 93 89 98 34 38 49 51 51 60 63 61 66 68 58 90 91 76
17 18 18 18 18 23 22 22 20 26 20 43 40 30 37 44 49 47 61 79 95 96 88 77 77 80 86 86 88 99 43 34 43 47 53 62 60 59 53 52 54 55 54 63
18 18 21 25 24 23 26 26 22 21 19 17 32 36 29 52 48 52 59 72 78 77 88 94 76 76 93 78 93 96 68 33 37 43 46 55 57 49 44 48 56 67 67 61
25 23 21 22 27 32 29 43 34 22 24 26 20 24 32 48 41 51 58 72 82 79 80 86 76 78 87 88 98 96 79 45 32 39 43 50 51 51 53 59 64 75 74 78
28 24 24 26 28 28 30 28 37 38 40 34 27 38 59 44 49 58 66 63 74 82 86 89 94 80 88 80 92 77 80 62 30 36 38 54 46 51 56 59 59 70 72 72
28 25 22 22 26 23 27 38 35 24 30 33 38 49 41 50 44 68 70 61 70 91 67 78 84 98 87 83 99 81 76 70 44 34 38 38 49 50 50 60 61 72 71 74
28 25 19 19 18 22 24 21 22 34 39 40 38 41 47 62 42 49 76 88 56 62 78 84 94 82 84 95 98 98 81 74 70 38 44 46 40 44 52 56 59 53 69 72
31 19 18 15 15 26 33 32 46 41 28 32 32 35 52 51 58 54 62 98 73 66 92 95 95 99 80 98 99 97 87 83 78 62 39 28 46 56 54 46 36 33 32 35
29 26 23 19 16 17 19 43 39 52 49 26 31 42 48 49 41 29 36 64 61 69 65 98 96 93 97 93 82 79 92 87 81 69 68 54 35 47 53 46 44 43 35 30
32 32 30 27 22 20 19 23 47 46 44 41 37 40 78 94 32 33 34 80 65 95 67 74 70 73 76 75 93 92 91 99 92 78 70 80 61 60 70 85 88 86 77 66
35 33 31 29 25 32 28 23 26 36 31 43 47 42 55 88 35 37 31 72 72 100 99 94 78 92 90 84 83 98 95 94 93 92 85 88 85 62 70 91 90 90 93 93
29 38 35 28 26 32 32 35 33 49 32 42 60 43 77 45 35 43 33 34 69 85 87 82 82 97 100 100 95 100 94 94 96 99 93 90 93 94 93 93 95 91 97 96
26 33 32 35 35 39 34 45 56 48 37 36 41 56 65 42 46 48 48 58 78 89 85 92 82 84 87 98 100 97 96 91 88 99 99 97 99 98 93 81 95 85 88 94
28 34 38 33 39 69 52 44 46 70 44 47 43 47 62 43 74 68 62 65 69 63 97 69 62 79 65 70 82 94 99 98 100 98 98 100 99 97 80 83 86 94 91 85
41 40 36 33 35 52 45 63 63 56 61 68 52 54 84 40 62 67 62 49 52 49 83 78 65 77 81 82 87 76 77 79 90 87 97 95 88 86 81 93 99 99 99 98
40 39 42 47 54 57 62 62 51 77 85 95 89 87 64 60 72 71 63 59 51 52 61 66 65 65 75 84 85 88 96 96 96 95 88 84 91 88 81 82 95 100 100 99
46 47 64 52 69 65 76 62 80 51 84 89 77 68 71 88 80 69 59 55 53 51 50 50 56 58 63 77 78 87 94 95 80 93 94 95 98 88 84 81 81 99 95 94
54 60 44 56 58 64 71 78 79 59 99 84 73 77 86 73 74 72 64 58 60 55 55 60 48 48 59 68 74 79 89 90 85 88 96 97 92 89 92 88 86 84 69 76
55 64 49 45 48 64 79 84 93 100 67 76 96 99 95 65 66 58 62 59 59 45 64 61 56 46 49 56 68 77 96 89 92 96 92 90 98 100 99 100 86 75 71 80
51 43 39 60 58 73 89 93 99 91 99 100 98 73 77 77 72 62 55 48 37 46 64 64 59 58 61 56 61 63 68 71 73 74 79 71 92 94 98 99 100 99 91 100